Погода в Сарате

Украина / Одесская область     46°01′12″N   29°40′27″E
темп.,
°C
ветер,
м/с
пор.,
м/с
влажн.,
%
обл.,
%
осадки,
мм/ч
давл.,
гПа
погр.,
м
17 мая, пн
пн1700:00+14сз227881 0.0 100711
03:00+14сз338073 0.0 100534
06:00+13зсз338295 0.0 100546
09:00+19з345941 0.0 1005546
12:00+23зюз334728 0.0 10051721
15:00+22ююз565147 0.1 1005855
18:00+19ю696870 0.0 1004276
21:00+18ююз497592 0.5 1004217
18 мая, вт
вт1800:00+15ю4887100 0.7 1004209
03:00+14юз51287100 0.9 1004394
06:00+14ююз4109299 0.1 1003526
09:00+15юз6984100 0.1 1003812
12:00+20зюз885660 0.0 10031440
15:00+20з895329 0.9 10031625
18:00+18з8115551 0.2 10041682
21:00+14з611631 0.2 1005393
19 мая, ср
ср1900:00+13зюз71278100 0.2 1006700
03:00+12з121990100 3.8 10051065
06:00+12зсз111883100 4.2 10071074
09:00+16зсз10156897 4.2 10091319
12:00+19зсз10125078 0.0 10111917
15:00+20сз8114828 0.0 10112015
18:00+22ссз454231 0.0 10111428
21:00+17вюв366627 0.0 1012128
20 мая, чт
чт2000:00+14ю227392 0.0 101218
03:00+13ю2280100 0.0 101123
06:00+13ю358598 0.0 1011105
09:00+19ю686291 0.0 1011566
12:00+20ююв7950100 0.0 1011839
15:00+18ююв695450 0.0 1011567
18:00+18ююв5766100 0.0 1011590
21:00+15вюв488386 0.0 1010240
21 мая, пт
пт2100:00+14вюв4984100 0.0 1010295
03:00+13в229046 0.0 101128
06:00+13св3386100 0.0 101173
09:00+17вюв2370100 0.0 1011588
12:00+21ссв2256100 0.0 10111002
15:00+24св444772 0.0 10101367
18:00+23всв555268 0.0 1009842
21:00+18с1163100 0.0 101111